WetterOnline ( https://www.wetteronline.de )

Wetter aktuell Veitsrodt

Aktuelles Wetter: Deuselbach (483m)

6-stündlich | Neueste Meldungen
Ortszeit Temperatur Wetter
Fr, 27.11. 1:00 3.1° C wolkenlos
Do, 26.11. 19:00 5.6° C bedeckt
Do, 26.11. 13:00 10.5° C wolkenlos
Do, 26.11. 7:00 3.1° C leicht bewölkt
Do, 26.11. 1:00 2.6° C leicht bewölkt
Mi, 25.11. 19:00 6.8° C bewölkt
Mi, 25.11. 13:00 6.7° C wolkenlos
Mi, 25.11. 7:00 3.6° C wolkig
Ortszeit Temperatur Wetter
Fr, 27.11. 3:00 2.9° C bedeckt
Fr, 27.11. 2:50 2.9° C bedeckt
Fr, 27.11. 2:40 2.8° C bedeckt
Fr, 27.11. 2:30 1.7° C wolkig
Fr, 27.11. 2:20 1.7° C wolkig
Fr, 27.11. 2:10 1.6° C leicht bewölkt
Fr, 27.11. 2:00 2.2° C wolkenlos
Fr, 27.11. 1:30 1.9° C wolkenlos
Fr, 27.11. 1:00 3.1° C wolkenlos
Fr, 27.11. 0:30 2.7° C wolkenlos
Fr, 27.11. 0:00 2.2° C wolkenlos
Ortszeit Relative Feuchte Sichtweite
Fr, 27.11. 1:00 94% 35 km
Do, 26.11. 19:00 80% 60 km
Do, 26.11. 13:00 60% >70 km
Do, 26.11. 7:00 98% 35 km
Do, 26.11. 1:00 92% 16 km
Mi, 25.11. 19:00 77% 35 km
Mi, 25.11. 13:00 80% 26 km
Mi, 25.11. 7:00 87% 26 km
Ortszeit Relative Feuchte Sichtweite
Fr, 27.11. 3:00 94% 35 km
Fr, 27.11. 2:50 94% -
Fr, 27.11. 2:40 94% -
Fr, 27.11. 2:30 95% 22 km
Fr, 27.11. 2:20 95% -
Fr, 27.11. 2:10 94% -
Fr, 27.11. 2:00 94% 28 km
Fr, 27.11. 1:30 94% 23 km
Fr, 27.11. 1:00 94% 35 km
Fr, 27.11. 0:30 93% 35 km
Fr, 27.11. 0:00 89% 25 km
Ortszeit Niederschlagsmenge Niederschlagsart
Fr, 27.11. 1:00 0.0 l/m2 in 6 Std. -
Do, 26.11. 19:00 0.0 l/m2 in 12 Std. -
Do, 26.11. 13:00 0.0 l/m2 in 6 Std. -
Do, 26.11. 7:00 0.0 l/m2 in 12 Std. -
Do, 26.11. 1:00 0.0 l/m2 in 6 Std. -
Mi, 25.11. 19:00 0.0 l/m2 in 12 Std. -
Mi, 25.11. 13:00 0.0 l/m2 in 6 Std. -
Mi, 25.11. 7:00 0.0 l/m2 in 12 Std. -
Ortszeit Niederschlagsmenge Niederschlagsart
Fr, 27.11. 3:00 0.0 l/m2 in 1 Std. -
Fr, 27.11. 2:50 keine Meldung -
Fr, 27.11. 2:40 keine Meldung -
Fr, 27.11. 2:30 0.0 l/m2 in 1 Std. -
Fr, 27.11. 2:20 keine Meldung -
Fr, 27.11. 2:10 keine Meldung -
Fr, 27.11. 2:00 0.0 l/m2 in 1 Std. -
Fr, 27.11. 1:30 0.0 l/m2 in 1 Std. -
Fr, 27.11. 1:00 0.0 l/m2 in 1 Std. -
Fr, 27.11. 0:30 0.0 l/m2 in 1 Std. -
Fr, 27.11. 0:00 0.0 l/m2 in 1 Std. -
Ortszeit Stärke Spitze Richtung
km/h Bft. km/h Grad Sektor
Fr, 27.11. 1:00 0 0 11 - -
Do, 26.11. 19:00 6 1 24 180° S
Do, 26.11. 13:00 7 2 18 260° W
Do, 26.11. 7:00 4 1 7 200° S
Do, 26.11. 1:00 4 1 18 150° SO
Mi, 25.11. 19:00 7 2 18 240° SW
Mi, 25.11. 13:00 7 2 25 300° NW
Mi, 25.11. 7:00 9 2 26 220° SW
Ortszeit Stärke Spitze Richtung
km/h Bft. km/h Grad Sektor
Fr, 27.11. 3:00 2 1 6 10° N
Fr, 27.11. 2:50 2 1 - 10° N
Fr, 27.11. 2:40 4 1 - 60° NO
Fr, 27.11. 2:30 4 1 7 150° SO
Fr, 27.11. 2:20 4 1 - 150° SO
Fr, 27.11. 2:10 2 1 - 100° O
Fr, 27.11. 2:00 4 1 7 180° S
Fr, 27.11. 1:30 7 2 7 180° S
Fr, 27.11. 1:00 0 0 11 - -
Fr, 27.11. 0:30 6 1 9 210° SW
Fr, 27.11. 0:00 7 2 11 310° NW
Ortszeit Untergrenze Bedeckung Gattung
total tief tief mittel hoch
Fr, 27.11. 1:00 - 0/8 0/8 - - -
Do, 26.11. 19:00 1050 m 8/8 8/8 - - -
Do, 26.11. 13:00 - 0/8 0/8 - - -
Do, 26.11. 7:00 6000 m 2/8 2/8 - - -
Do, 26.11. 1:00 8100 m 3/8 0/8 - - -
Mi, 25.11. 19:00 4500 m 7/8 7/8 - - -
Mi, 25.11. 13:00 - 0/8 0/8 - - -
Mi, 25.11. 7:00 9000 m 7/8 0/8 - - -
Ortszeit Bedeckungsgrad in Achtel und Wolkenuntergrenze
Fr, 27.11. 3:00 8(1050m)
Fr, 27.11. 2:50 8(1050m)
Fr, 27.11. 2:40 8(1050m)
Fr, 27.11. 2:30 5(1020m)
Fr, 27.11. 2:20 5(1020m)
Fr, 27.11. 2:10 3(1050m)
Fr, 27.11. 2:00 keine Wolken
Fr, 27.11. 1:30 keine Wolken
Fr, 27.11. 1:00 keine Wolken
Fr, 27.11. 0:30 keine Wolken
Fr, 27.11. 0:00 keine Wolken
Ortszeit Luftdruck NN (hPa) Tendenz (hPa in 3 Std.)
Fr, 27.11. 1:00 1021 0,0
Do, 26.11. 19:00 1021 0,0
Do, 26.11. 13:00 1021 - 0,9
Do, 26.11. 7:00 1022 + 0,1
Do, 26.11. 1:00 1022 + 0,7
Mi, 25.11. 19:00 1020 + 0,6
Mi, 25.11. 13:00 1019 - 0,4
Mi, 25.11. 7:00 1019 - 0,3
Ortszeit Luftdruck NN (hPa) Tendenz (hPa in 3 Std.)
Fr, 27.11. 3:00 1021 - 0,3
Fr, 27.11. 2:50 1021 keine Meldung
Fr, 27.11. 2:40 1021 keine Meldung
Fr, 27.11. 2:30 1021 - 0,2
Fr, 27.11. 2:20 1021 keine Meldung
Fr, 27.11. 2:10 1021 keine Meldung
Fr, 27.11. 2:00 1021 - 0,3
Fr, 27.11. 1:30 1021 - 0,1
Fr, 27.11. 1:00 1021 0,0
Fr, 27.11. 0:30 1022 + 0,1
Fr, 27.11. 0:00 1022 - 0,1
Ortszeit Schneehöhe (cm)
Fr, 27.11. 1:00 0
Do, 26.11. 19:00 0
Do, 26.11. 13:00 0
Do, 26.11. 7:00 0
Do, 26.11. 1:00 0
Mi, 25.11. 19:00 0
Mi, 25.11. 13:00 0
Mi, 25.11. 7:00 0
Ortszeit Schneehöhe (cm)
Fr, 27.11. 3:00 0
Fr, 27.11. 2:50 0
Fr, 27.11. 2:40 0
Fr, 27.11. 2:30 0
Fr, 27.11. 2:20 0
Fr, 27.11. 2:10 0
Fr, 27.11. 2:00 0
Fr, 27.11. 1:30 0
Fr, 27.11. 1:00 0
Fr, 27.11. 0:30 0
Fr, 27.11. 0:00 0
Link zu dieser Seite / Seite empfehlen

Das Wetter in ...